Vorticity
47 24 15 15 43 18 14 37 29 56 44 50 11 31 36 13 26 8 1 31 20 18 14 13 10 12 16 24 5 11 15 5 15 29 4 14 31 9 -10 0 -11 26 19 11 20 5 1 24 4 9 6 -10 -0 1
13 14 7 17 18 22 28 23 28 47 29 28 14 24 37 19 31 -6 18 27 2 5 12 -0 17 27 15 12 23 9 20 16 -4 48 11 -2 3 14 5 25 -17 8 6 35 -8 2 10 20 5 12 4 -2 7 9
13 16 19 7 -9 10 34 24 71 31 34 40 26 22 20 32 7 16 37 -3 2 -1 5 12 30 3 5 13 15 21 -5 28 11 -35 17 28 10 7 11 23 6 14 25 -0 23 1 15 27 22 -5 -7 8 -0 10
22 30 34 27 25 20 12 30 41 47 41 31 31 27 2 36 18 53 -3 20 8 13 -4 -0 1 22 12 20 23 29 0 26 11 33 24 24 12 8 14 15 19 11 -33 83 -3 -1 7 -2 2 5 15 6 1 8
20 30 28 27 25 20 34 3 23 7 12 20 22 26 21 6 25 13 25 2 12 16 9 -0 9 2 14 16 23 15 8 16 -4 18 21 8 12 15 10 17 10 6 8 17 19 -22 30 -2 10 8 -1 -0 6 8
31 32 27 14 32 3 29 21 8 22 34 25 0 12 26 44 4 5 21 -4 9 8 13 15 21 7 -3 10 38 3 28 5 -15 -9 21 45 2 16 7 21 9 2 -1 6 12 9 13 9 1 1 1 4 3 16
32 31 40 37 20 27 54 23 35 33 25 28 17 19 19 14 9 9 12 16 20 8 -8 4 -2 18 15 14 -2 29 9 14 -10 7 -0 9 11 11 5 15 9 16 6 18 13 16 9 11 3 11 24 -5 -9 4
7 8 34 29 36 15 -0 7 19 18 13 10 18 21 11 7 10 15 9 10 13 9 13 29 16 14 25 21 20 52 17 5 -10 8 20 5 2 11 19 19 17 10 7 17 11 14 18 10 23 21 4 6 -2 3
11 4 4 9 13 0 -10 11 3 1 -5 7 9 11 8 10 3 4 2 5 11 18 18 -5 7 19 25 10 36 27 21 8 0 6 11 18 6 13 10 18 22 20 16 13 11 17 19 21 15 16 21 6 2 4
7 6 6 -1 3 8 9 6 3 2 -0 13 14 6 3 1 9 8 -3 11 13 18 -1 4 0 12 34 16 10 16 23 15 16 6 3 2 6 3 -5 -0 8 26 34 32 29 21 6 9 25 22 14 16 27 25
11 11 10 8 8 7 6 5 9 12 18 10 3 4 4 3 4 6 10 29 52 17 -5 -2 45 -19 -8 40 5 3 9 8 6 13 8 11 10 10 9 8 13 7 6 6 8 9 6 5 5 5 2 4 7 5
11 7 7 9 10 13 15 13 10 6 4 5 3 5 2 4 7 12 26 29 4 -10 4 8 -6 51 45 -17 24 -4 14 2 7 10 3 6 11 7 7 13 9 8 9 5 12 12 6 6 9 11 11 8 8 5
15 15 13 11 16 19 16 15 13 12 13 13 11 29 10 28 2 5 19 20 -19 -4 23 9 -6 45 13 16 14 5 -5 12 -5 14 4 19 8 16 12 12 14 18 20 19 16 13 8 5 4 9 19 17 15 13
13 10 9 10 8 9 9 6 8 11 9 14 34 -8 10 23 18 4 1 16 -7 5 4 14 25 18 -2 53 3 3 8 30 22 22 5 3 13 9 11 13 16 20 14 12 13 19 19 16 15 11 13 12 15 8
8 9 9 8 13 14 20 15 12 15 20 24 29 3 5 17 37 25 23 14 -11 29 7 1 7 10 7 1 12 5 9 -9 14 16 9 6 8 12 6 9 4 6 5 4 10 13 12 9 3 9 4 1 -6 2
1 3 13 17 15 16 7 5 11 10 25 38 23 21 24 33 11 21 37 -19 4 10 3 5 7 5 8 3 3 5 6 7 8 -1 -8 4 -0 2 2 3 6 9 9 12 12 15 16 12 12 9 23 30 22 20
4 14 20 24 16 -9 18 17 28 37 -18 22 29 27 19 3 32 28 22 -15 3 11 1 2 9 3 10 4 12 19 18 2 9 4 5 14 15 13 9 8 13 9 3 2 6 9 9 10 8 7 8 9 7 9
14 2 9 11 7 2 7 9 5 23 28 31 17 16 31 45 26 7 -0 3 12 -3 3 -0 3 2 7 8 -4 -5 -2 2 8 -3 4 1 2 4 13 16 12 11 16 15 10 11 7 5 5 8 8 6 4 5
7 11 -4 3 4 -1 -13 14 45 20 18 19 31 21 27 21 16 6 10 3 -5 2 4 -21 0 21 14 6 13 7 12 18 19 15 10 6 4 6 14 16 14 16 14 10 8 8 8 7 7 7 6 6 6 6
25 17 15 13 9 8 15 17 10 8 17 20 25 28 10 20 22 24 28 24 5 -0 3 8 11 11 25 19 16 16 13 9 7 8 8 7 6 3 3 3 3 3 4 5 5 5 5 5 5 6 6 5 6 6
4 -1 5 6 11 6 8 8 7 11 14 12 13 15 15 12 13 15 12 13 15 6 7 5 4 2 3 5 5 6 6 5 5 5 5 6 5 5 5 6 7 8 8 9 9 10 9 9 10 9 10 11 11 11
17 10 6 2 6 6 7 7 10 10 5 5 2 5 5 4 9 4 7 8 7 7 5 6 7 7 9 9 10 11 10 8 7 5 6 5 6 6 6 7 12 9 6 5 2 1 3 3 3 5 7 7 9 11
10 12 13 12 7 -1 6 9 6 4 12 6 6 6 8 10 10 13 7 9 11 10 8 5 4 1 -0 -1 -5 -2 -2 1 -0 1 5 9 7 3 5 9 12 14 16 15 13 12 12 13 13 14 14 15 16 16
9 10 11 5 1 15 14 11 9 8 9 11 11 9 10 8 4 5 4 4 5 3 1 2 2 4 4 4 4 6 6 4 4 2 3 4 10 16 21 20 21 21 21 21 23 25 25 25 24 23 21 19 17 16
25 7 21 16 13 17 14 8 7 8 5 4 4 3 3 3 2 1 2 2 2 3 4 3 5 6 7 7 8 7 6 4 5 12 21 27 28 27 23 20 19 17 16 14 12 11 11 11 12 14 16 20 24 28
10 14 13 6 6 8 5 4 3 4 3 4 4 3 3 4 5 -1 3 1 0 2 2 4 4 5 8 6 3 3 13 19 23 24 20 17 15 14 14 13 14 15 16 17 20 23 26 30 31 31 30 27 23 17
13 10 8 5 5 4 4 3 3 4 4 5 4 5 3 3 1 3 6 5 7 9 10 9 8 4 3 12 19 21 21 19 18 18 20 23 25 27 28 29 30 28 28 27 26 24 22 24 24 17 10 8 9 11
0 6 1 3 5 6 5 6 5 5 6 5 6 5 5 6 7 7 12 12 9 7 4 1 4 17 18 18 19 23 30 34 34 32 30 28 23 20 19 17 16 14 13 20 28 22 10 9 10 8 9 13 12 13
5 5 4 4 4 3 4 5 6 7 6 5 5 7 9 14 12 9 4 7 3 4 7 16 18 16 16 28 34 30 24 20 18 15 13 10 7 8 13 18 27 35 19 10 10 7 9 10 8 8 7 7 11 10
3 4 5 7 8 8 6 8 8 5 4 8 13 14 9 6 4 6 3 4 8 13 17 16 13 25 31 23 14 11 9 9 9 10 11 13 18 22 35 20 12 9 8 9 8 8 7 8 8 8 7 7 8 7
4 9 11 9 7 6 6 6 5 9 17 11 7 6 5 4 4 3 6 12 15 18 13 20 28 24 18 15 16 17 18 19 20 22 19 25 35 18 12 8 8 6 6 5 5 5 6 7 9 10 10 10 9 9
9 6 6 6 7 6 5 12 15 10 6 6 5 3 5 2 6 10 11 20 16 15 24 26 17 12 17 22 26 26 25 24 21 29 37 16 11 7 7 5 4 4 5 7 9 10 9 9 9 10 11 10 10 9
7 7 8 4 7 16 14 8 6 6 6 5 4 5 6 6 11 15 20 13 16 25 21 11 25 37 38 38 41 43 43 40 28 15 11 7 7 5 3 4 5 4 6 11 13 11 10 10 11 11 10 10 10 12
Height
5328 5323 5318 5313 5307 5301 5295 5287 5280 5274 5275 5280 5291 5307 5322 5340 5354 5373 5390 5399 5414 5426 5438 5447 5456 5465 5471 5480 5492 5506 5510 5514 5527 5532 5541 5549 5557 5568 5574 5577 5582 5590 5597 5602 5610 5614 5620 5632 5635 5639 5645 5649 5648 5648
5319 5313 5309 5303 5297 5291 5283 5276 5269 5265 5266 5276 5288 5302 5317 5333 5351 5367 5381 5397 5410 5423 5434 5443 5451 5458 5466 5475 5484 5494 5506 5508 5517 5525 5538 5545 5552 5560 5568 5571 5578 5585 5592 5598 5601 5607 5615 5623 5627 5634 5638 5638 5638 5638
5312 5306 5300 5296 5291 5284 5276 5270 5261 5261 5266 5275 5288 5302 5317 5332 5350 5368 5383 5396 5409 5421 5433 5440 5447 5455 5463 5469 5478 5486 5499 5507 5510 5519 5531 5535 5540 5554 5559 5566 5574 5580 5582 5590 5594 5602 5607 5616 5619 5623 5626 5629 5630 5629
5307 5298 5292 5291 5289 5284 5279 5273 5268 5267 5272 5280 5291 5306 5322 5337 5354 5368 5383 5399 5410 5422 5430 5436 5443 5450 5458 5464 5473 5482 5491 5499 5506 5514 5523 5531 5541 5550 5555 5561 5567 5574 5575 5582 5588 5594 5597 5601 5604 5613 5616 5618 5619 5621
5304 5299 5294 5291 5289 5287 5283 5282 5282 5284 5288 5294 5304 5316 5330 5345 5357 5371 5386 5401 5410 5421 5429 5435 5440 5448 5454 5460 5469 5477 5487 5497 5508 5513 5520 5528 5538 5545 5549 5555 5560 5568 5572 5575 5582 5586 5580 5590 5594 5601 5606 5609 5613 5613
5307 5300 5296 5296 5294 5292 5291 5290 5294 5297 5303 5310 5320 5331 5343 5355 5367 5379 5389 5400 5410 5420 5427 5432 5439 5446 5452 5456 5463 5472 5481 5493 5498 5506 5515 5523 5534 5539 5544 5550 5559 5563 5565 5567 5569 5571 5577 5585 5589 5594 5597 5599 5601 5603
5315 5307 5300 5300 5301 5302 5302 5302 5306 5312 5318 5327 5336 5345 5355 5366 5376 5387 5397 5407 5412 5419 5424 5430 5436 5441 5447 5452 5459 5469 5479 5488 5496 5503 5511 5521 5531 5533 5538 5543 5553 5555 5558 5560 5561 5566 5572 5577 5580 5583 5588 5589 5590 5592
5326 5321 5314 5312 5313 5315 5318 5321 5325 5330 5336 5343 5350 5358 5367 5376 5384 5392 5399 5404 5411 5417 5423 5428 5432 5436 5440 5447 5455 5463 5475 5486 5496 5504 5512 5520 5525 5529 5533 5537 5541 5546 5550 5552 5554 5560 5563 5567 5569 5572 5576 5579 5582 5583
5335 5334 5331 5330 5330 5331 5334 5338 5342 5346 5352 5357 5362 5368 5374 5381 5388 5395 5400 5405 5412 5418 5419 5425 5431 5436 5441 5448 5454 5464 5474 5484 5492 5500 5508 5516 5520 5521 5527 5533 5538 5541 5543 5544 5548 5551 5554 5556 5559 5562 5564 5568 5569 5571
5339 5341 5341 5343 5343 5345 5347 5350 5353 5357 5361 5365 5370 5375 5381 5387 5393 5397 5402 5405 5410 5416 5421 5428 5434 5440 5443 5448 5457 5468 5474 5482 5489 5499 5507 5511 5514 5518 5525 5529 5533 5535 5537 5539 5542 5544 5547 5549 5551 5553 5555 5557 5557 5559
5345 5346 5347 5348 5350 5353 5356 5359 5362 5365 5368 5373 5378 5383 5387 5392 5395 5398 5401 5404 5409 5415 5424 5431 5437 5442 5448 5451 5458 5466 5473 5480 5489 5498 5502 5507 5510 5515 5521 5524 5528 5530 5531 5534 5536 5539 5540 5542 5543 5544 5545 5548 5549 5549
5351 5352 5354 5356 5358 5360 5362 5365 5368 5372 5376 5381 5385 5389 5392 5396 5398 5400 5404 5409 5413 5419 5426 5430 5437 5441 5447 5455 5461 5466 5475 5481 5489 5495 5498 5502 5506 5511 5515 5519 5521 5522 5524 5526 5528 5530 5531 5532 5532 5533 5534 5535 5536 5536
5359 5360 5361 5363 5364 5366 5369 5371 5374 5376 5379 5382 5386 5390 5393 5398 5401 5402 5407 5414 5418 5423 5428 5433 5437 5445 5453 5459 5464 5469 5477 5484 5489 5490 5494 5499 5504 5507 5510 5512 5514 5515 5517 5517 5518 5519 5521 5522 5524 5525 5525 5525 5526 5526
5367 5367 5369 5371 5374 5376 5378 5379 5380 5380 5381 5383 5386 5389 5392 5397 5404 5405 5410 5417 5422 5427 5432 5436 5440 5446 5452 5459 5465 5473 5476 5481 5484 5488 5492 5498 5501 5503 5505 5507 5509 5510 5511 5511 5511 5512 5512 5513 5513 5513 5513 5513 5512 5512
5375 5376 5377 5379 5381 5382 5383 5384 5385 5384 5384 5386 5389 5393 5396 5400 5403 5407 5413 5421 5428 5433 5438 5443 5448 5451 5456 5463 5467 5472 5476 5478 5483 5489 5492 5494 5496 5498 5500 5501 5502 5502 5502 5501 5501 5500 5501 5501 5501 5500 5500 5500 5500 5499
5384 5385 5385 5386 5387 5388 5389 5391 5391 5391 5390 5391 5393 5396 5399 5403 5407 5412 5420 5431 5436 5441 5445 5448 5453 5458 5462 5465 5469 5472 5476 5480 5485 5488 5490 5492 5493 5494 5494 5494 5495 5495 5494 5494 5494 5493 5492 5492 5491 5490 5489 5488 5486 5485
5392 5393 5393 5394 5396 5397 5398 5399 5399 5399 5398 5397 5399 5402 5406 5409 5415 5421 5431 5438 5442 5446 5450 5453 5457 5460 5464 5467 5469 5471 5474 5476 5479 5482 5484 5486 5487 5487 5487 5487 5487 5487 5486 5486 5485 5484 5483 5482 5480 5478 5477 5475 5474 5472
5399 5400 5401 5402 5403 5404 5404 5404 5404 5405 5405 5405 5407 5410 5414 5417 5422 5430 5437 5444 5450 5453 5457 5461 5464 5465 5467 5469 5471 5473 5475 5476 5477 5478 5480 5480 5480 5480 5480 5479 5478 5477 5476 5475 5474 5473 5472 5471 5469 5467 5464 5462 5460 5457
5407 5408 5409 5410 5411 5411 5411 5412 5412 5412 5414 5416 5418 5421 5426 5432 5438 5442 5447 5451 5455 5458 5462 5464 5465 5466 5468 5470 5470 5471 5471 5472 5473 5474 5474 5474 5473 5473 5472 5471 5470 5469 5467 5465 5464 5462 5460 5458 5456 5453 5451 5448 5445 5442
5414 5415 5416 5417 5417 5418 5420 5420 5421 5423 5423 5426 5429 5432 5436 5440 5444 5448 5453 5457 5460 5462 5463 5464 5466 5467 5468 5469 5469 5470 5471 5470 5470 5469 5468 5467 5466 5465 5464 5462 5460 5458 5456 5454 5452 5450 5447 5445 5442 5439 5436 5432 5429 5425
5422 5422 5423 5425 5425 5426 5427 5429 5431 5432 5433 5436 5438 5441 5443 5446 5450 5453 5456 5458 5461 5462 5463 5464 5465 5465 5466 5466 5466 5466 5466 5465 5465 5464 5462 5461 5459 5457 5455 5452 5450 5447 5444 5441 5438 5435 5432 5429 5426 5422 5419 5416 5412 5408
5428 5429 5430 5431 5432 5432 5434 5436 5438 5440 5442 5443 5444 5447 5449 5451 5453 5455 5457 5459 5460 5462 5463 5464 5464 5465 5465 5465 5464 5463 5462 5460 5458 5456 5454 5452 5449 5446 5443 5440 5437 5434 5430 5427 5423 5419 5416 5413 5409 5405 5401 5398 5394 5388
5433 5434 5435 5437 5437 5439 5441 5443 5444 5445 5447 5448 5449 5451 5452 5454 5456 5458 5459 5460 5461 5462 5463 5463 5462 5462 5461 5459 5458 5456 5454 5451 5448 5445 5442 5438 5435 5431 5427 5423 5419 5415 5412 5408 5404 5400 5396 5392 5389 5385 5381 5377 5373 5369
5436 5438 5439 5440 5441 5443 5444 5445 5447 5449 5450 5452 5453 5454 5456 5457 5458 5459 5460 5461 5461 5461 5460 5459 5458 5456 5454 5452 5449 5445 5441 5437 5432 5427 5423 5419 5414 5410 5406 5402 5399 5395 5392 5389 5386 5382 5379 5376 5373 5369 5365 5361 5357 5352
5440 5440 5442 5442 5444 5445 5447 5448 5449 5450 5451 5452 5453 5454 5454 5455 5456 5456 5456 5456 5455 5454 5453 5451 5449 5446 5444 5440 5436 5432 5427 5422 5417 5411 5405 5400 5396 5392 5388 5385 5381 5379 5376 5373 5370 5367 5364 5361 5357 5354 5350 5346 5341 5337
5440 5440 5443 5443 5445 5447 5448 5449 5450 5450 5451 5452 5452 5452 5453 5453 5453 5452 5451 5449 5448 5446 5443 5441 5438 5435 5431 5426 5421 5416 5410 5403 5396 5391 5386 5383 5379 5376 5373 5370 5368 5364 5362 5359 5356 5353 5349 5346 5343 5339 5336 5332 5328 5324
5440 5441 5443 5444 5446 5448 5448 5449 5450 5450 5450 5450 5450 5450 5450 5449 5448 5447 5445 5443 5441 5438 5435 5431 5428 5423 5418 5411 5403 5396 5389 5384 5379 5375 5371 5368 5365 5362 5359 5357 5354 5352 5349 5346 5344 5341 5338 5336 5333 5330 5326 5323 5319 5314
5440 5442 5444 5445 5446 5446 5447 5447 5447 5447 5447 5447 5447 5446 5445 5444 5442 5440 5438 5435 5432 5428 5424 5419 5413 5406 5398 5391 5385 5379 5374 5369 5365 5362 5359 5356 5354 5352 5350 5348 5346 5343 5341 5338 5336 5334 5332 5329 5327 5323 5320 5316 5311 5306
5440 5441 5442 5443 5444 5444 5444 5444 5444 5443 5443 5442 5441 5440 5438 5436 5434 5431 5428 5425 5421 5416 5410 5403 5395 5388 5382 5376 5371 5366 5363 5360 5357 5355 5352 5350 5348 5346 5343 5341 5339 5336 5335 5334 5332 5330 5327 5324 5321 5317 5313 5308 5303 5298
5438 5439 5440 5440 5440 5440 5440 5440 5439 5438 5437 5436 5434 5432 5430 5428 5425 5422 5418 5413 5407 5400 5393 5386 5380 5373 5368 5364 5360 5357 5355 5352 5350 5348 5346 5343 5341 5339 5337 5336 5335 5334 5332 5330 5328 5325 5322 5318 5314 5310 5305 5300 5295 5290
5435 5435 5435 5435 5435 5435 5434 5434 5432 5431 5430 5428 5427 5425 5422 5418 5414 5410 5405 5399 5392 5385 5379 5373 5367 5362 5357 5353 5350 5347 5344 5343 5341 5340 5338 5337 5335 5335 5334 5333 5332 5330 5328 5326 5323 5320 5316 5312 5307 5303 5298 5292 5287 5281
5430 5430 5430 5430 5429 5429 5428 5427 5425 5424 5423 5421 5418 5415 5412 5408 5403 5398 5392 5385 5379 5373 5367 5361 5356 5351 5346 5341 5338 5335 5333 5333 5332 5332 5332 5333 5333 5332 5331 5330 5329 5326 5324 5321 5317 5313 5309 5305 5300 5295 5290 5284 5278 5272
5424 5424 5424 5424 5423 5422 5421 5420 5418 5416 5414 5412 5409 5405 5401 5397 5392 5386 5379 5374 5368 5362 5357 5352 5346 5341 5336 5333 5330 5327 5327 5327 5328 5330 5330 5331 5331 5330 5329 5327 5324 5322 5318 5314 5310 5306 5302 5297 5292 5287 5281 5275 5269 5263